Regional Weather Roundup
Issued by NWS Kansas City/Pleasant Hill, MO

Home | Current Version | Previous Version | Graphics & Text | Print | Product List | Glossary Off
Versions: 1 2 3 4 5 6 7 8 9 10 11 12 13 14 15 16 17 18 19 20 21 22 23 24 25 26 27

000
ASUS43 KEAX 282010
RWREAX

WEATHER ROUNDUP FOR EASTERN KANSAS AND NORTHWEST MISSOURI
NATIONAL WEATHER SERVICE KANSAS CITY/PLEASANT HILL MO
300 PM CDT FRI APR 28 2017

KSZ040-057-103>105-MOZ028-029-037-043-282100-
...KANSAS CITY METROPOLITAN AREA...

CITY           SKY/WX    TMP DP  RH WIND       PRES   REMARKS
K.C. INTL      DRZL/FOG  55  54  96 N12       29.70R VSB 1/4
K.C. DOWNTOWN  CLOUDY    62  58  86 S5        29.69S
LEES SUMMIT    CLOUDY    61  56  83 S13       29.70S
OLATHE - IXD   CLOUDY    60  57  89 S7        29.69S
OLATHE - OJC   CLOUDY    59  58  96 S9        29.69S
LAWRENCE       CLOUDY    64  59  83 SE9       29.68S

$$

MOZ001>008-011>017-020>025-030>033-038>040-044>046-053-054-282100-
...NORTHERN AND CENTRAL MISSOURI...

CITY           SKY/WX    TMP DP  RH WIND       PRES   REMARKS
ST. JOSEPH     CLOUDY    48  47  96 NE12      29.73S
MOSBY          CLOUDY    59  59 100 CALM      29.70S FOG
WHITEMAN AFB   CLOUDY    61  61 100 S8        29.70R
CLINTON        CLOUDY    59  59 100 S7        29.71S FOG
SEDALIA        CLOUDY    62  58  86 SE13      29.72R
WARSAW         NOT AVBL
CHILLICOTHE      N/A     51  49  92 N7        29.74R
KIRKSVILLE     CLOUDY    49  32  52 N10       29.76R HAZE

$$

MOZ041-047>049-056>058-063>065-088>090-097-282100-
...EASTERN AND SOUTHERN MISSOURI...

CITY           SKY/WX    TMP DP  RH WIND       PRES   REMARKS
ST. LOUIS INTL TSTM      57  54  89 E8        29.79R FOG
SPIRIT OF STL  LGT RAIN  56  56 100 E5        29.78R FOG
COLUMBIA       CLOUDY    60  56  86 SE13      29.73R
JEFFERSON CITY CLOUDY    61  55  81 E6        29.74R
ROLLA          CLOUDY    57  57 100 E8        29.73S FOG
OSAGE BEACH    LGT RAIN  58  57  97 E6        29.73S FOG
SPRINGFIELD    CLOUDY    62  59  90 S7        29.70R
BRANSON        CLOUDY    61  61 100 E7        29.71F
JOPLIN         CLOUDY    68  62  81 VRB3      29.69R
WEST PLAINS    CLOUDY    61  60  97 S3        29.75R FOG

$$

IAZ060-094-KSZ022-034>040-054-083-096-NEZ052-066-093-282100-
...KANSAS...SOUTHEAST NEBRASKA AND IOWA...

CITY           SKY/WX    TMP DP  RH WIND       PRES   REMARKS
TOPEKA         PTSUNNY   67  59  75 CALM      29.67S
MANHATTAN      PTSUNNY   58  52  80 N9        29.70R
EMPORIA        PTSUNNY   67  55  65 CALM      29.66R
CHANUTE        CLOUDY    67  58  72 SW5       29.68S
WICHITA        MOSUNNY   71  47  42 W6        29.65R
OMAHA          DRIZZLE   41  36  82 NE12      29.85R WCI  34
LINCOLN        CLOUDY    42  40  92 NE13G21   29.83R FOG
FALLS CITY     CLOUDY    44  42  93 NE13      29.75R
LAMONI         LGT RAIN  41  39  93 NE15      29.79R WCI  33
DES MOINES     RAIN      40  38  93 N8        29.89R FOG     WCI  34

$$





USA.gov is the U.S. government's official web portal to all federal, state and local government web resources and services.